Time,TemperatureF,DewpointF,PressureIn,WindDirection,WindDirectionDegrees,WindSpeedMPH,WindSpeedGustMPH,Humidity,HourlyPrecipIn,Conditions,Clouds,dailyrainin,SoftwareType,DateUTC
2013-03-16 08:15:00,40.7,37.4,29.81,NE,42,0.0,0.0,88,0.00,,,0.00,Wunderground v.1.15,2013-03-16 12:15:00,
2013-03-16 08:16:00,40.7,37.4,29.81,NE,41,0.0,0.0,88,0.00,,,0.00,Wunderground v.1.15,2013-03-16 12:16:00,
2013-03-16 08:20:00,40.8,37.5,29.81,NE,41,0.0,0.0,88,0.00,,,0.00,Wunderground v.1.15,2013-03-16 12:20:00,
2013-03-16 08:25:00,40.9,37.6,29.81,NE,41,0.0,0.0,88,0.00,,,0.00,Wunderground v.1.15,2013-03-16 12:25:00,
2013-03-16 08:31:00,41.0,37.7,29.81,NE,42,0.0,0.0,88,0.00,,,0.01,Wunderground v.1.15,2013-03-16 12:31:00,
2013-03-16 08:36:00,41.1,37.5,29.81,NE,42,0.0,0.0,87,0.00,,,0.01,Wunderground v.1.15,2013-03-16 12:36:00,
2013-03-16 08:42:00,41.3,37.4,29.80,NE,42,0.0,2.0,86,0.00,,,0.01,Wunderground v.1.15,2013-03-16 12:42:00,
2013-03-16 08:48:00,41.7,37.5,29.80,NE,41,1.0,1.0,85,0.00,,,0.01,Wunderground v.1.15,2013-03-16 12:48:00,
2013-03-16 08:53:00,41.8,37.6,29.81,NE,41,1.0,2.0,85,0.00,,,0.01,Wunderground v.1.15,2013-03-16 12:53:00,
2013-03-16 08:58:00,42.1,37.9,29.80,NE,42,1.0,1.0,85,0.00,,,0.01,Wunderground v.1.15,2013-03-16 12:58:00,
2013-03-16 09:04:00,42.2,37.7,29.80,NE,42,1.0,2.0,84,0.00,,,0.01,Wunderground v.1.15,2013-03-16 13:04:00,
2013-03-16 09:09:00,42.4,37.9,29.80,NE,42,1.0,3.0,84,0.00,,,0.01,Wunderground v.1.15,2013-03-16 13:09:00,
2013-03-16 09:15:00,42.7,37.9,29.79,NE,42,1.0,3.0,83,0.00,,,0.01,Wunderground v.1.15,2013-03-16 13:15:00,
2013-03-16 09:20:00,43.0,38.2,29.79,NE,42,2.0,2.0,83,0.00,,,0.01,Wunderground v.1.15,2013-03-16 13:20:00,
2013-03-16 09:26:00,43.3,38.2,29.79,NE,42,2.0,5.0,82,0.00,,,0.01,Wunderground v.1.15,2013-03-16 13:26:00,
2013-03-16 09:31:00,43.8,38.7,29.79,NE,42,3.0,3.0,82,0.00,,,0.01,Wunderground v.1.15,2013-03-16 13:31:00,
2013-03-16 09:36:00,43.9,38.1,29.79,NE,42,2.0,3.0,80,0.00,,,0.01,Wunderground v.1.15,2013-03-16 13:36:00,
2013-03-16 09:42:00,44.0,38.5,29.78,NE,42,1.0,2.0,81,0.00,,,0.01,Wunderground v.1.15,2013-03-16 13:42:00,
2013-03-16 09:47:00,44.0,38.2,29.78,NE,41,1.0,2.0,80,0.00,,,0.01,Wunderground v.1.15,2013-03-16 13:47:00,
2013-03-16 09:53:00,44.0,38.2,29.78,NE,41,1.0,1.0,80,0.00,,,0.01,Wunderground v.1.15,2013-03-16 13:53:00,
2013-03-16 09:59:00,44.2,38.1,29.77,NE,42,1.0,1.0,79,0.00,,,0.01,Wunderground v.1.15,2013-03-16 13:59:00,
2013-03-16 10:04:00,44.3,38.5,29.77,NE,42,1.0,3.0,80,0.00,,,0.01,Wunderground v.1.15,2013-03-16 14:04:00,
2013-03-16 10:10:00,44.5,38.7,29.77,NE,42,1.0,1.0,80,0.00,,,0.01,Wunderground v.1.15,2013-03-16 14:10:00,
2013-03-16 10:16:00,44.6,38.8,29.77,NE,42,0.0,2.0,80,0.00,,,0.01,Wunderground v.1.15,2013-03-16 14:16:00,
2013-03-16 10:21:00,44.7,38.9,29.77,NE,42,0.0,0.0,80,0.00,,,0.01,Wunderground v.1.15,2013-03-16 14:21:00,
2013-03-16 10:26:00,44.8,39.0,29.76,NE,42,0.0,3.0,80,0.00,,,0.01,Wunderground v.1.15,2013-03-16 14:26:00,
2013-03-16 10:32:00,45.0,39.2,29.76,NE,42,0.0,0.0,80,0.00,,,0.01,Wunderground v.1.15,2013-03-16 14:32:00,
2013-03-16 10:37:00,45.0,39.5,29.77,NE,41,0.0,0.0,81,0.00,,,0.01,Wunderground v.1.15,2013-03-16 14:37:00,
2013-03-16 10:42:00,45.2,39.7,29.76,NE,41,0.0,0.0,81,0.00,,,0.01,Wunderground v.1.15,2013-03-16 14:42:00,
2013-03-16 10:47:00,45.5,40.0,29.75,NE,42,0.0,2.0,81,0.00,,,0.01,Wunderground v.1.15,2013-03-16 14:47:00,
2013-03-16 10:52:00,46.1,40.6,29.75,NE,42,1.0,3.0,81,0.00,,,0.01,Wunderground v.1.15,2013-03-16 14:52:00,
2013-03-16 10:58:00,46.8,41.3,29.76,NE,41,1.0,3.0,81,0.00,,,0.01,Wunderground v.1.15,2013-03-16 14:58:00,
2013-03-16 11:03:00,47.0,40.8,29.74,NE,42,1.0,2.0,79,0.00,,,0.01,Wunderground v.1.15,2013-03-16 15:03:00,
2013-03-16 11:09:00,47.3,41.4,29.73,NE,53,2.0,3.0,80,0.00,,,0.01,Wunderground v.1.15,2013-03-16 15:09:00,
2013-03-16 11:14:00,48.3,42.1,29.73,NE,53,2.0,2.0,79,0.00,,,0.01,Wunderground v.1.15,2013-03-16 15:14:00,
2013-03-16 11:20:00,48.5,41.3,29.73,ENE,69,2.0,3.0,76,0.00,,,0.01,Wunderground v.1.15,2013-03-16 15:20:00,
2013-03-16 11:25:00,48.9,42.3,29.73,ENE,63,2.0,3.0,78,0.00,,,0.01,Wunderground v.1.15,2013-03-16 15:25:00,
2013-03-16 11:31:00,49.1,41.5,29.73,ESE,107,3.0,5.0,75,0.00,,,0.01,Wunderground v.1.15,2013-03-16 15:31:00,
2013-03-16 11:36:00,49.2,41.6,29.73,ESE,110,3.0,5.0,75,0.00,,,0.01,Wunderground v.1.15,2013-03-16 15:36:00,
2013-03-16 11:42:00,49.0,41.4,29.73,ESE,110,1.0,4.0,75,0.00,,,0.01,Wunderground v.1.15,2013-03-16 15:42:00,
2013-03-16 11:47:00,48.8,41.2,29.72,ESE,110,1.0,4.0,75,0.00,,,0.01,Wunderground v.1.15,2013-03-16 15:47:00,
2013-03-16 11:53:00,48.7,41.5,29.72,ESE,110,1.0,3.0,76,0.00,,,0.01,Wunderground v.1.15,2013-03-16 15:53:00,
2013-03-16 11:59:00,48.7,41.8,29.72,ESE,110,1.0,3.0,77,0.00,,,0.01,Wunderground v.1.15,2013-03-16 15:59:00,
2013-03-16 12:04:00,48.7,41.5,29.72,ESE,110,1.0,3.0,76,0.00,,,0.01,Wunderground v.1.15,2013-03-16 16:04:00,
2013-03-16 12:10:00,48.7,41.1,29.72,ESE,110,1.0,1.0,75,0.00,,,0.01,Wunderground v.1.15,2013-03-16 16:10:00,
2013-03-16 12:15:00,48.7,42.1,29.72,ESE,110,1.0,3.0,78,0.00,,,0.01,Wunderground v.1.15,2013-03-16 16:15:00,
2013-03-16 12:21:00,48.5,41.6,29.72,ESE,113,2.0,2.0,77,0.00,,,0.01,Wunderground v.1.15,2013-03-16 16:21:00,
2013-03-16 12:26:00,48.4,41.5,29.72,ESE,113,1.0,2.0,77,0.00,,,0.01,Wunderground v.1.15,2013-03-16 16:26:00,
2013-03-16 12:32:00,48.5,41.3,29.71,ESE,113,0.0,1.0,76,0.00,,,0.01,Wunderground v.1.15,2013-03-16 16:32:00,
2013-03-16 12:38:00,48.7,42.1,29.71,ESE,113,0.0,1.0,78,0.00,,,0.01,Wunderground v.1.15,2013-03-16 16:38:00,
2013-03-16 12:44:00,48.8,41.6,29.70,ESE,113,0.0,2.0,76,0.00,,,0.01,Wunderground v.1.15,2013-03-16 16:44:00,
2013-03-16 12:49:00,48.9,42.0,29.70,ESE,113,0.0,3.0,77,0.00,,,0.01,Wunderground v.1.15,2013-03-16 16:49:00,
2013-03-16 12:54:00,49.0,41.8,29.70,ESE,113,1.0,2.0,76,0.00,,,0.01,Wunderground v.1.15,2013-03-16 16:54:00,
2013-03-16 13:00:00,49.2,42.0,29.69,ESE,113,1.0,1.0,76,0.00,,,0.01,Wunderground v.1.15,2013-03-16 17:00:00,
2013-03-16 13:05:00,49.4,41.5,29.68,East,96,1.0,6.0,74,0.00,,,0.01,Wunderground v.1.15,2013-03-16 17:05:00,
2013-03-16 13:10:00,49.6,41.7,29.67,ESE,103,4.0,4.0,74,0.00,,,0.01,Wunderground v.1.15,2013-03-16 17:10:00,
2013-03-16 13:16:00,50.4,42.4,29.67,ESE,103,3.0,4.0,74,0.00,,,0.01,Wunderground v.1.15,2013-03-16 17:16:00,
2013-03-16 13:21:00,51.7,44.0,29.66,ESE,102,2.0,4.0,75,0.00,,,0.01,Wunderground v.1.15,2013-03-16 17:21:00,
2013-03-16 13:26:00,52.2,43.1,29.66,ESE,104,3.0,4.0,71,0.00,,,0.01,Wunderground v.1.15,2013-03-16 17:26:00,
2013-03-16 13:32:00,52.8,44.0,29.66,ESE,103,1.0,3.0,72,0.00,,,0.01,Wunderground v.1.15,2013-03-16 17:32:00,
2013-03-16 13:38:00,53.6,44.4,29.65,East,93,2.0,7.0,71,0.00,,,0.01,Wunderground v.1.15,2013-03-16 17:38:00,
2013-03-16 13:43:00,53.9,44.0,29.66,East,92,2.0,3.0,69,0.00,,,0.01,Wunderground v.1.15,2013-03-16 17:43:00,
2013-03-16 13:48:00,54.3,44.3,29.67,East,93,1.0,3.0,69,0.00,,,0.01,Wunderground v.1.15,2013-03-16 17:48:00,
2013-03-16 13:54:00,54.1,44.2,29.67,East,101,2.0,6.0,69,0.00,,,0.01,Wunderground v.1.15,2013-03-16 17:54:00,
2013-03-16 13:59:00,54.1,44.2,29.66,East,101,2.0,6.0,69,0.00,,,0.01,Wunderground v.1.15,2013-03-16 17:59:00,
2013-03-16 14:04:00,54.6,44.6,29.66,East,101,1.0,3.0,69,0.00,,,0.01,Wunderground v.1.15,2013-03-16 18:04:00,
2013-03-16 14:10:00,54.8,44.8,29.66,SE,126,2.0,2.0,69,0.00,,,0.01,Wunderground v.1.15,2013-03-16 18:10:00,
2013-03-16 14:16:00,54.6,44.2,29.66,SE,125,3.0,3.0,68,0.00,,,0.01,Wunderground v.1.15,2013-03-16 18:16:00,
2013-03-16 14:22:00,54.6,44.6,29.66,SE,126,1.0,2.0,69,0.00,,,0.01,Wunderground v.1.15,2013-03-16 18:22:00,
2013-03-16 14:28:00,54.3,44.0,29.65,SE,126,1.0,3.0,68,0.00,,,0.01,Wunderground v.1.15,2013-03-16 18:28:00,
2013-03-16 14:33:00,54.1,43.8,29.65,SE,126,2.0,4.0,68,0.00,,,0.01,Wunderground v.1.15,2013-03-16 18:33:00,
2013-03-16 14:39:00,53.9,44.0,29.65,SE,126,2.0,4.0,69,0.00,,,0.01,Wunderground v.1.15,2013-03-16 18:39:00,
2013-03-16 14:44:00,53.8,44.2,29.64,SE,126,0.0,2.0,70,0.00,,,0.01,Wunderground v.1.15,2013-03-16 18:44:00,
2013-03-16 14:50:00,53.9,44.0,29.65,SE,126,0.0,0.0,69,0.00,,,0.01,Wunderground v.1.15,2013-03-16 18:50:00,
2013-03-16 14:55:00,53.9,44.0,29.65,SE,126,0.0,0.0,69,0.00,,,0.01,Wunderground v.1.15,2013-03-16 18:55:00,
2013-03-16 15:00:00,53.8,43.9,29.65,SE,125,0.0,1.0,69,0.00,,,0.01,Wunderground v.1.15,2013-03-16 19:00:00,
2013-03-16 15:06:00,53.6,43.7,29.65,SE,125,1.0,3.0,69,0.00,,,0.01,Wunderground v.1.15,2013-03-16 19:06:00,
2013-03-16 15:11:00,53.5,43.6,29.65,SE,125,1.0,2.0,69,0.00,,,0.01,Wunderground v.1.15,2013-03-16 19:11:00,
2013-03-16 15:16:00,53.5,44.0,29.65,SE,126,1.0,3.0,70,0.00,,,0.01,Wunderground v.1.15,2013-03-16 19:16:00,
2013-03-16 15:21:00,53.4,43.9,29.65,SE,126,1.0,1.0,70,0.00,,,0.01,Wunderground v.1.15,2013-03-16 19:21:00,
2013-03-16 15:27:00,53.3,43.8,29.65,SE,126,1.0,3.0,70,0.00,,,0.01,Wunderground v.1.15,2013-03-16 19:27:00,
2013-03-16 15:32:00,53.2,43.7,29.65,SE,126,2.0,2.0,70,0.00,,,0.01,Wunderground v.1.15,2013-03-16 19:32:00,
2013-03-16 15:38:00,53.1,43.9,29.65,ESE,123,2.0,3.0,71,0.00,,,0.01,Wunderground v.1.15,2013-03-16 19:38:00,
2013-03-16 15:44:00,52.6,42.7,29.66,NNE,15,4.0,8.0,69,0.00,,,0.01,Wunderground v.1.15,2013-03-16 19:44:00,
2013-03-16 15:50:00,51.2,42.5,29.66,NNE,23,5.0,6.0,72,0.00,,,0.01,Wunderground v.1.15,2013-03-16 19:50:00,
2013-03-16 15:55:00,49.7,42.1,29.66,NNE,33,4.0,6.0,75,0.00,,,0.02,Wunderground v.1.15,2013-03-16 19:55:00,
2013-03-16 16:02:00,48.1,41.6,29.66,NNE,26,3.0,5.0,78,0.08,,,0.03,Wunderground v.1.15,2013-03-16 20:02:00,
2013-03-16 16:07:00,46.6,40.8,29.67,NNE,15,5.0,8.0,80,0.08,,,0.03,Wunderground v.1.15,2013-03-16 20:07:00,
2013-03-16 16:13:00,45.3,40.1,29.67,NNE,20,6.0,8.0,82,0.05,,,0.03,Wunderground v.1.15,2013-03-16 20:13:00,
2013-03-16 16:18:00,44.5,39.7,29.67,NNE,33,6.0,8.0,83,0.00,,,0.03,Wunderground v.1.15,2013-03-16 20:18:00,
2013-03-16 16:23:00,44.0,39.5,29.67,NNE,26,5.0,7.0,84,0.00,,,0.03,Wunderground v.1.15,2013-03-16 20:23:00,
2013-03-16 16:29:00,43.8,39.6,29.68,NNE,29,5.0,7.0,85,0.00,,,0.03,Wunderground v.1.15,2013-03-16 20:29:00,
2013-03-16 16:34:00,43.5,39.3,29.68,NNE,23,5.0,11.0,85,0.00,,,0.03,Wunderground v.1.15,2013-03-16 20:34:00,
2013-03-16 16:39:00,43.1,38.9,29.68,NNE,18,6.0,11.0,85,0.00,,,0.03,Wunderground v.1.15,2013-03-16 20:39:00,
2013-03-16 16:45:00,42.9,39.0,29.69,North,11,6.0,8.0,86,0.00,,,0.03,Wunderground v.1.15,2013-03-16 20:45:00,
2013-03-16 16:50:00,42.7,38.8,29.69,NNE,14,6.0,6.0,86,0.00,,,0.03,Wunderground v.1.15,2013-03-16 20:50:00,
2013-03-16 16:55:00,42.6,39.0,29.69,NNE,24,6.0,6.0,87,0.00,,,0.03,Wunderground v.1.15,2013-03-16 20:55:00,
2013-03-16 17:00:00,42.4,38.8,29.69,NNE,22,5.0,5.0,87,0.00,,,0.03,Wunderground v.1.15,2013-03-16 21:00:00,
2013-03-16 17:05:00,42.3,38.7,29.70,NNE,28,5.0,7.0,87,0.00,,,0.03,Wunderground v.1.15,2013-03-16 21:05:00,
2013-03-16 17:11:00,42.2,38.6,29.70,NNE,22,5.0,8.0,87,0.00,,,0.03,Wunderground v.1.15,2013-03-16 21:11:00,
2013-03-16 17:17:00,42.2,38.6,29.70,NNE,29,5.0,9.0,87,0.00,,,0.03,Wunderground v.1.15,2013-03-16 21:17:00,
2013-03-16 17:23:00,42.2,38.6,29.70,NNE,18,6.0,9.0,87,0.00,,,0.03,Wunderground v.1.15,2013-03-16 21:23:00,
2013-03-16 17:29:00,42.2,38.9,29.70,NNE,13,6.0,9.0,88,0.00,,,0.03,Wunderground v.1.15,2013-03-16 21:29:00,
2013-03-16 17:34:00,42.2,38.6,29.70,North,5,7.0,7.0,87,0.00,,,0.03,Wunderground v.1.15,2013-03-16 21:34:00,
2013-03-16 17:39:00,42.2,38.9,29.71,North,11,6.0,9.0,88,0.00,,,0.03,Wunderground v.1.15,2013-03-16 21:39:00,
2013-03-16 17:45:00,42.3,38.7,29.72,NNE,26,6.0,8.0,87,0.00,,,0.03,Wunderground v.1.15,2013-03-16 21:45:00,
2013-03-16 17:51:00,42.3,38.7,29.72,NNE,18,6.0,6.0,87,0.00,,,0.03,Wunderground v.1.15,2013-03-16 21:51:00,
2013-03-16 17:57:00,42.2,38.6,29.73,NNE,14,5.0,7.0,87,0.00,,,0.03,Wunderground v.1.15,2013-03-16 21:57:00,
2013-03-16 18:03:00,41.8,38.2,29.74,North,9,5.0,8.0,87,0.00,,,0.03,Wunderground v.1.15,2013-03-16 22:03:00,
2013-03-16 18:09:00,42.0,38.7,29.73,NE,45,4.0,8.0,88,0.00,,,0.03,Wunderground v.1.15,2013-03-16 22:09:00,
2013-03-16 18:15:00,41.6,37.7,29.73,NE,55,5.0,9.0,86,0.00,,,0.03,Wunderground v.1.15,2013-03-16 22:15:00,
2013-03-16 18:20:00,41.3,37.4,29.74,NNE,30,5.0,6.0,86,0.00,,,0.03,Wunderground v.1.15,2013-03-16 22:20:00,
2013-03-16 18:26:00,41.0,37.1,29.74,NE,39,5.0,6.0,86,0.00,,,0.03,Wunderground v.1.15,2013-03-16 22:26:00,
2013-03-16 18:32:00,40.5,36.6,29.75,NNE,31,5.0,5.0,86,0.00,,,0.03,Wunderground v.1.15,2013-03-16 22:32:00,
2013-03-16 18:37:00,40.0,36.2,29.75,NNE,22,5.0,6.0,86,0.00,,,0.03,Wunderground v.1.15,2013-03-16 22:37:00,
2013-03-16 18:42:00,39.6,35.8,29.76,NNE,13,5.0,9.0,86,0.00,,,0.03,Wunderground v.1.15,2013-03-16 22:42:00,
2013-03-16 18:48:00,39.3,35.8,29.76,NNE,22,5.0,9.0,87,0.00,,,0.03,Wunderground v.1.15,2013-03-16 22:48:00,
2013-03-16 18:54:00,39.4,36.1,29.77,NNE,17,6.0,8.0,88,0.00,,,0.03,Wunderground v.1.15,2013-03-16 22:54:00,
2013-03-16 19:00:00,39.5,36.2,29.77,NNE,22,5.0,10.0,88,0.00,,,0.03,Wunderground v.1.15,2013-03-16 23:00:00,
2013-03-16 19:05:00,39.5,36.2,29.78,North,11,5.0,10.0,88,0.00,,,0.03,Wunderground v.1.15,2013-03-16 23:05:00,
2013-03-16 19:12:00,39.4,36.1,29.78,North,11,4.0,7.0,88,0.00,,,0.03,Wunderground v.1.15,2013-03-16 23:12:00,
2013-03-16 19:17:00,39.3,36.0,29.78,NNE,14,4.0,7.0,88,0.00,,,0.03,Wunderground v.1.15,2013-03-16 23:17:00,
2013-03-16 19:23:00,39.3,36.0,29.79,NNE,17,4.0,4.0,88,0.00,,,0.03,Wunderground v.1.15,2013-03-16 23:23:00,
2013-03-16 19:29:00,39.2,35.9,29.80,NNE,16,3.0,4.0,88,0.00,,,0.03,Wunderground v.1.15,2013-03-16 23:29:00,
2013-03-16 19:34:00,39.3,36.0,29.80,NNE,15,2.0,4.0,88,0.00,,,0.03,Wunderground v.1.15,2013-03-16 23:34:00,
2013-03-16 19:40:00,39.2,35.9,29.80,NNE,16,1.0,1.0,88,0.00,,,0.03,Wunderground v.1.15,2013-03-16 23:40:00,
2013-03-16 19:45:00,39.2,35.9,29.81,NNE,15,1.0,2.0,88,0.00,,,0.03,Wunderground v.1.15,2013-03-16 23:45:00,
2013-03-16 19:51:00,39.1,35.8,29.81,NNE,18,1.0,2.0,88,0.00,,,0.03,Wunderground v.1.15,2013-03-16 23:51:00,
2013-03-16 19:56:00,38.9,35.6,29.81,NNE,18,1.0,2.0,88,0.00,,,0.03,Wunderground v.1.15,2013-03-16 23:56:00,
2013-03-16 20:02:00,38.8,35.6,29.82,NNE,18,1.0,1.0,88,0.00,,,0.03,Wunderground v.1.15,2013-03-17 00:02:00,
2013-03-16 20:07:00,38.8,35.6,29.82,NNE,18,1.0,2.0,88,0.00,,,0.03,Wunderground v.1.15,2013-03-17 00:07:00,
2013-03-16 20:13:00,38.7,35.7,29.82,NNE,18,1.0,2.0,89,0.00,,,0.03,Wunderground v.1.15,2013-03-17 00:13:00,
2013-03-16 20:19:00,38.7,35.7,29.83,NNE,18,1.0,3.0,89,0.00,,,0.03,Wunderground v.1.15,2013-03-17 00:19:00,
2013-03-16 20:24:00,38.6,35.6,29.84,NNE,18,1.0,2.0,89,0.00,,,0.03,Wunderground v.1.15,2013-03-17 00:24:00,
2013-03-16 20:29:00,38.5,35.5,29.84,NNE,18,1.0,2.0,89,0.00,,,0.03,Wunderground v.1.15,2013-03-17 00:29:00,
2013-03-16 20:35:00,38.4,35.4,29.85,NNE,18,1.0,3.0,89,0.00,,,0.03,Wunderground v.1.15,2013-03-17 00:35:00,
2013-03-16 20:40:00,38.4,35.4,29.85,NNE,18,1.0,3.0,89,0.00,,,0.03,Wunderground v.1.15,2013-03-17 00:40:00,
2013-03-16 20:46:00,38.4,35.4,29.86,NNE,18,1.0,3.0,89,0.00,,,0.03,Wunderground v.1.15,2013-03-17 00:46:00,
2013-03-16 20:52:00,38.2,35.0,29.86,NNE,18,1.0,2.0,88,0.00,,,0.03,Wunderground v.1.15,2013-03-17 00:52:00,
2013-03-16 20:58:00,38.1,34.9,29.86,NNE,18,1.0,2.0,88,0.00,,,0.03,Wunderground v.1.15,2013-03-17 00:58:00,
2013-03-16 21:04:00,38.0,34.8,29.87,NNE,18,1.0,5.0,88,0.00,,,0.03,Wunderground v.1.15,2013-03-17 01:04:00,
2013-03-16 21:10:00,37.9,34.9,29.87,NNE,19,1.0,3.0,89,0.00,,,0.03,Wunderground v.1.15,2013-03-17 01:10:00,
2013-03-16 21:15:00,37.7,34.5,29.88,NNE,22,2.0,4.0,88,0.00,,,0.03,Wunderground v.1.15,2013-03-17 01:15:00,
2013-03-16 21:21:00,37.6,34.4,29.88,NNE,24,3.0,4.0,88,0.00,,,0.03,Wunderground v.1.15,2013-03-17 01:21:00,
2013-03-16 21:26:00,37.5,34.3,29.88,NNE,24,2.0,4.0,88,0.00,,,0.03,Wunderground v.1.15,2013-03-17 01:26:00,
2013-03-16 21:32:00,37.5,34.3,29.89,NNE,24,1.0,1.0,88,0.00,,,0.03,Wunderground v.1.15,2013-03-17 01:32:00,